TimeCDT,TemperatureF,Dew PointF,Humidity,Sea Level PressureIn,VisibilityMPH,Wind Direction,Wind SpeedMPH,Gust SpeedMPH,PrecipitationIn,Events,Conditions,WindDirDegrees,DateUTC
12:15 AM,51.8,46.4,82,30.13,10.0,Calm,Calm,-,N/A,,Clear,0,2012-10-09 05:15:00
12:35 AM,51.8,46.4,82,30.13,10.0,Calm,Calm,-,N/A,,Clear,0,2012-10-09 05:35:00
12:55 AM,51.8,46.4,82,30.12,10.0,Calm,Calm,-,N/A,,Clear,0,2012-10-09 05:55:00
1:15 AM,51.8,46.4,82,30.12,10.0,Calm,Calm,-,N/A,,Clear,0,2012-10-09 06:15:00
1:55 AM,51.8,46.4,82,30.11,10.0,Calm,Calm,-,N/A,,Clear,0,2012-10-09 06:55:00
2:15 AM,50.0,46.4,87,30.11,10.0,Calm,Calm,-,N/A,,Clear,0,2012-10-09 07:15:00
2:55 AM,50.0,44.6,82,30.12,10.0,Calm,Calm,-,N/A,,Clear,0,2012-10-09 07:55:00
3:15 AM,48.2,44.6,87,30.11,10.0,Calm,Calm,-,N/A,,Clear,0,2012-10-09 08:15:00
3:35 AM,50.0,46.4,87,30.11,10.0,Calm,Calm,-,N/A,,Clear,0,2012-10-09 08:35:00
4:15 AM,48.2,44.6,87,30.11,10.0,Calm,Calm,-,N/A,,Partly Cloudy,0,2012-10-09 09:15:00
4:35 AM,50.0,46.4,87,30.11,10.0,Calm,Calm,-,N/A,,Mostly Cloudy,0,2012-10-09 09:35:00
4:55 AM,50.0,46.4,87,30.11,10.0,Calm,Calm,-,N/A,,Partly Cloudy,0,2012-10-09 09:55:00
5:15 AM,50.0,46.4,87,30.11,10.0,Calm,Calm,-,N/A,,Clear,0,2012-10-09 10:15:00
5:35 AM,50.0,46.4,87,30.11,10.0,Calm,Calm,-,N/A,,Clear,0,2012-10-09 10:35:00
5:55 AM,48.2,44.6,87,30.11,10.0,Calm,Calm,-,N/A,,Clear,0,2012-10-09 10:55:00
6:15 AM,48.2,44.6,87,30.12,10.0,Calm,Calm,-,N/A,,Clear,0,2012-10-09 11:15:00
6:55 AM,48.2,44.6,87,30.13,10.0,Calm,Calm,-,N/A,,Clear,0,2012-10-09 11:55:00
7:15 AM,48.2,44.6,87,30.13,10.0,Calm,Calm,-,N/A,,Clear,0,2012-10-09 12:15:00
7:35 AM,48.2,44.6,87,30.14,10.0,Calm,Calm,-,N/A,,Clear,0,2012-10-09 12:35:00
7:55 AM,48.2,44.6,87,30.14,10.0,Calm,Calm,-,N/A,,Clear,0,2012-10-09 12:55:00
8:15 AM,48.2,44.6,87,30.14,10.0,Calm,Calm,-,N/A,,Clear,0,2012-10-09 13:15:00
8:35 AM,48.2,46.4,93,30.14,10.0,Calm,Calm,-,N/A,,Clear,0,2012-10-09 13:35:00
8:55 AM,51.8,48.2,88,30.15,10.0,Calm,Calm,-,N/A,,Clear,0,2012-10-09 13:55:00
9:15 AM,53.6,48.2,82,30.16,10.0,Calm,Calm,-,N/A,,Clear,0,2012-10-09 14:15:00
9:35 AM,59.0,50.0,72,30.17,10.0,Calm,Calm,-,N/A,,Clear,0,2012-10-09 14:35:00
9:55 AM,60.8,50.0,68,30.18,10.0,Calm,Calm,-,N/A,,Clear,0,2012-10-09 14:55:00
10:15 AM,64.4,48.2,56,30.19,10.0,Calm,Calm,-,N/A,,Clear,0,2012-10-09 15:15:00
10:35 AM,64.4,48.2,56,30.19,10.0,Calm,Calm,-,N/A,,Clear,0,2012-10-09 15:35:00
10:55 AM,64.4,48.2,56,30.19,10.0,Calm,Calm,-,N/A,,Clear,0,2012-10-09 15:55:00
11:15 AM,68.0,50.0,52,30.19,10.0,Calm,Calm,-,N/A,,Clear,0,2012-10-09 16:15:00
11:35 AM,71.6,50.0,46,30.19,10.0,Calm,Calm,-,N/A,,Clear,0,2012-10-09 16:35:00
11:55 AM,75.2,44.6,34,30.18,10.0,Calm,Calm,-,N/A,,Clear,0,2012-10-09 16:55:00
12:15 PM,77.0,41.0,28,30.18,10.0,Calm,Calm,-,N/A,,Clear,0,2012-10-09 17:15:00
12:35 PM,77.0,39.2,26,30.17,10.0,Calm,Calm,-,N/A,,Clear,0,2012-10-09 17:35:00
12:55 PM,78.8,39.2,24,30.17,10.0,Calm,Calm,-,N/A,,Clear,0,2012-10-09 17:55:00
1:15 PM,78.8,37.4,23,30.16,10.0,WSW,10.4,-,N/A,,Clear,250,2012-10-09 18:15:00
1:35 PM,80.6,37.4,21,30.15,10.0,West,3.5,17.3,N/A,,Clear,270,2012-10-09 18:35:00
1:55 PM,80.6,37.4,21,30.15,10.0,West,10.4,-,N/A,,Clear,280,2012-10-09 18:55:00
2:15 PM,80.6,35.6,20,30.13,10.0,Calm,Calm,-,N/A,,Clear,0,2012-10-09 19:15:00
2:35 PM,80.6,35.6,20,30.13,10.0,WSW,6.9,-,N/A,,Clear,250,2012-10-09 19:35:00
2:55 PM,82.4,37.4,20,30.12,10.0,West,9.2,-,N/A,,Clear,270,2012-10-09 19:55:00
3:15 PM,82.4,37.4,20,30.11,10.0,Calm,Calm,-,N/A,,Clear,0,2012-10-09 20:15:00
3:35 PM,82.4,37.4,20,30.10,10.0,SSW,11.5,-,N/A,,Clear,200,2012-10-09 20:35:00
3:55 PM,82.4,35.6,19,30.10,10.0,Calm,Calm,-,N/A,,Clear,0,2012-10-09 20:55:00
4:15 PM,82.4,37.4,20,30.09,10.0,SSW,9.2,-,N/A,,Clear,200,2012-10-09 21:15:00
4:35 PM,82.4,37.4,20,30.09,10.0,SW,9.2,-,N/A,,Clear,220,2012-10-09 21:35:00
4:55 PM,82.4,37.4,20,30.09,10.0,SW,11.5,-,N/A,,Clear,220,2012-10-09 21:55:00
5:15 PM,82.4,37.4,20,30.08,10.0,West,10.4,-,N/A,,Clear,260,2012-10-09 22:15:00
5:35 PM,82.4,39.2,21,30.08,10.0,WSW,8.1,-,N/A,,Clear,240,2012-10-09 22:35:00
5:55 PM,82.4,37.4,20,30.08,10.0,Calm,Calm,-,N/A,,Clear,0,2012-10-09 22:55:00
6:15 PM,82.4,37.4,20,30.08,10.0,Calm,Calm,-,N/A,,Clear,0,2012-10-09 23:15:00
6:35 PM,80.6,37.4,21,30.08,10.0,Calm,Calm,-,N/A,,Clear,0,2012-10-09 23:35:00
6:55 PM,80.6,39.2,23,30.09,10.0,Calm,Calm,-,N/A,,Clear,0,2012-10-09 23:55:00
7:15 PM,78.8,39.2,24,30.09,10.0,Calm,Calm,-,N/A,,Clear,0,2012-10-10 00:15:00
7:35 PM,73.4,39.2,29,30.10,10.0,Calm,Calm,-,N/A,,Scattered Clouds,0,2012-10-10 00:35:00
7:55 PM,69.8,39.2,33,30.10,10.0,Calm,Calm,-,N/A,,Partly Cloudy,0,2012-10-10 00:55:00
8:15 PM,71.6,39.2,31,30.10,10.0,Calm,Calm,-,N/A,,Clear,0,2012-10-10 01:15:00
8:35 PM,62.6,42.8,48,30.11,10.0,Calm,Calm,-,N/A,,Clear,0,2012-10-10 01:35:00
8:55 PM,64.4,42.8,45,30.12,10.0,Calm,Calm,-,N/A,,Clear,0,2012-10-10 01:55:00
9:15 PM,60.8,42.8,52,30.13,10.0,Calm,Calm,-,N/A,,Clear,0,2012-10-10 02:15:00
9:35 PM,60.8,42.8,52,30.13,10.0,Calm,Calm,-,N/A,,Clear,0,2012-10-10 02:35:00
9:55 PM,57.2,42.8,59,30.13,10.0,Calm,Calm,-,N/A,,Clear,0,2012-10-10 02:55:00
10:15 PM,57.2,42.8,59,30.14,10.0,Calm,Calm,-,N/A,,Clear,0,2012-10-10 03:15:00
10:35 PM,55.4,42.8,63,30.14,10.0,Calm,Calm,-,N/A,,Clear,0,2012-10-10 03:35:00
10:55 PM,55.4,42.8,63,30.14,10.0,Calm,Calm,-,N/A,,Clear,0,2012-10-10 03:55:00
11:15 PM,53.6,42.8,67,30.14,10.0,Calm,Calm,-,N/A,,Clear,0,2012-10-10 04:15:00
11:35 PM,53.6,42.8,67,30.14,10.0,Calm,Calm,-,N/A,,Clear,0,2012-10-10 04:35:00
11:55 PM,53.6,42.8,67,30.14,10.0,Calm,Calm,-,N/A,,Clear,0,2012-10-10 04:55:00